Weather Roundup
Issued by NWS Chicago, IL

Home | Current Version | Previous Version | Graphics & Text | Print | Product List | Glossary On
Versions: 1 2 3 4 5 6 7 8 9 10 11 12 13 14 15 16 17 18 19 20 21 22 23 24 25 26 27 28 29 30 31 32 33 34 35 36 37 38 39 40 41 42 43 44 45 46 47 48 49 50
000
NZUS59 KLOT 191103
HRRLOT

CHICAGO AREA WEATHER ROUNDUP
NATIONAL WEATHER SERVICE CHICAGO/ROMEOVILLE IL
500 AM CST THU JAN 19 2017

NOTE: "FAIR" INDICATES FEW OR NO CLOUDS BELOW 12,000 FEET WITH NO
SIGNIFICANT WEATHER AND/OR OBSTRUCTIONS TO VISIBILITY.

* THESE STATIONS ARE NOT UNDER NWS QUALITY CONTROL. THEY ALSO MAY NOT
  REPORT WEATHER SUCH AS PRECIPITATION OR FOG.

ILZ005-006-012>014-019>023-191200-
NORTHEAST ILLINOIS

CITY           SKY/WX    TMP DP  RH WIND       PRES   REMARKS
OHARE          CLOUDY    33  33 100 S5        30.01F FOG     WCI  29
MIDWAY         CLOUDY    32  31  96 S6        30.03S FOG     WCI  26
AURORA         FOG       32  31  96 SE3       30.02F VSB 1/4
LANSING*       CLOUDY    33  33 100 S3        30.04F FOG
JOLIET*        CLOUDY    35  34  99 CALM      30.04S FOG
WAUKEGAN       FOG       33  33 100 SW9       30.00S VSB 3/4 WCI  25
DUPAGE AIRPORT FOG       32  31  96 S6        30.00F VSB 1   WCI  26
WHEELING       CLOUDY    34  33  96 SW5       30.03S FOG     WCI  30
KANKAKEE*      CLOUDY    33  33  96 CALM      30.05F FOG
MORRIS*        CLOUDY    33  32  97 CALM      30.01F FOG
LEWIS AIRPORT* CLOUDY    32  32 100 S6        30.03F FOG     WCI  27
NORTHERLY ISL    N/A     34  32  92 S6          N/A  WCI  29
$$

WIZ051-052-058>065-066-070>072-191200-
SOUTHEAST WISCONSIN

CITY           SKY/WX    TMP DP  RH WIND       PRES   REMARKS
MILWAUKEE      FOG       34  32  92 SW9       29.98F VSB 1   WCI  27
KENOSHA*       FOG       33  32  96 W8        29.99F VSB 1/4 WCI  26
RACINE*        CLOUDY    33  32  96 SW7       30.01S FOG     WCI  27
$$

INZ001>003-010>013-019-020-191200-
NORTHWEST INDIANA

CITY           SKY/WX    TMP DP  RH WIND       PRES   REMARKS
GARY*          CLOUDY    36  34  93 S5        30.05F FOG
MICHIGAN CITY* NOT AVBL
RENSSELAER*    NOT AVBL
VALPARAISO     CLOUDY    36  35  96 S6        30.05S FOG
$$

LMZ740>746-191200-
SOUTHERN LAKE MICHIGAN

STATION/POSITION TIME  SKY/WX   TEMP WIND        PRES    VSBY
                                AIR  DIR/SP/G
                 (UTC)          (F)  (DEG/KT/KT) (MB)    (MI)
HARRISON CRIB    1040            35  190/ 17/ 18   N/A
BURNHAM HARBOR   1100            35  170/  5/ 10   N/A
CALUMET HARBOR   1030            34  180/  6/  8 1016.6S
BURNS HARBOR     1040            35  180/ 11/ 14 1017.6F
MICHIGAN CITY    NOT AVBL
$$

ABBREVIATIONS USED IN REMARKS
   TC - TEMPERATURE IN CELSIUS
  WCI - WIND CHILL INDEX
   HX - HEAT INDEX
  VSB - VISIBILITY
$$




USA.gov is the U.S. government's official web portal to all federal, state and local government web resources and services.